Time,TemperatureF,DewpointF,PressureIn,WindDirection,WindDirectionDegrees,WindSpeedMPH,WindSpeedGustMPH,Humidity,HourlyPrecipIn,Conditions,Clouds,dailyrainin,SolarRadiationWatts/m^2,SoftwareType,DateUTC
2013-06-11 00:00:00,80.9,76.3,30.03,SSE,158,2.0,7.0,86,0.00,,SCT023,0.00,0.00,VWS V14.00,2013-06-11 04:00:00,
2013-06-11 00:30:00,80.9,76.3,30.02,SSE,158,3.0,10.0,86,0.00,,SCT023,0.00,0.00,VWS V14.00,2013-06-11 04:30:00,
2013-06-11 01:00:00,80.8,76.2,30.02,SSE,158,4.0,10.0,86,0.00,,SCT023,0.00,0.00,VWS V14.00,2013-06-11 05:00:00,
2013-06-11 01:30:00,80.8,76.2,30.01,SSE,158,4.0,11.0,86,0.00,,SCT023,0.00,0.00,VWS V14.00,2013-06-11 05:30:00,
2013-06-11 02:00:00,80.7,76.1,30.00,SSE,158,4.0,10.0,86,0.00,,SCT023,0.00,0.00,VWS V14.00,2013-06-11 06:00:00,
2013-06-11 02:30:00,80.6,76.4,29.99,SSE,158,3.0,11.0,87,0.00,,SCT023,0.00,0.00,VWS V14.00,2013-06-11 06:30:00,
2013-06-11 03:00:00,80.3,76.1,29.98,SSE,158,3.0,9.0,87,0.00,,SCT023,0.00,0.00,VWS V14.00,2013-06-11 07:00:00,
2013-06-11 03:30:00,80.1,76.2,29.98,SSE,158,2.0,6.0,88,0.00,,SCT023,0.00,0.00,VWS V14.00,2013-06-11 07:30:00,
2013-06-11 04:00:00,80.0,76.1,29.97,SSE,158,1.0,7.0,88,0.00,,SCT023,0.00,0.00,VWS V14.00,2013-06-11 08:00:00,
2013-06-11 04:30:00,80.0,75.8,29.97,SSE,158,3.0,9.0,87,0.00,,SCT023,0.00,0.00,VWS V14.00,2013-06-11 08:30:00,
2013-06-11 05:00:00,79.8,75.9,29.97,SSE,158,1.0,6.0,88,0.00,,SCT023,0.00,0.00,VWS V14.00,2013-06-11 09:00:00,
2013-06-11 05:30:00,79.5,75.6,29.97,SSE,158,1.0,5.0,88,0.00,,SCT023,0.00,0.00,VWS V14.00,2013-06-11 09:30:00,
2013-06-11 06:00:00,79.2,75.7,29.98,SSE,158,0.0,3.0,89,0.00,,SCT023,0.00,0.00,VWS V14.00,2013-06-11 10:00:00,
2013-06-11 06:30:00,78.9,75.4,29.99,SSE,158,0.0,3.0,89,0.00,,SCT023,0.00,1.00,VWS V14.00,2013-06-11 10:30:00,
2013-06-11 07:00:00,78.7,75.2,29.99,SSE,158,0.0,1.0,89,0.00,,SCT023,0.00,9.00,VWS V14.00,2013-06-11 11:00:00,
2013-06-11 07:30:00,78.9,75.4,30.00,SSE,158,0.0,0.0,89,0.00,,SCT023,0.00,47.00,VWS V14.00,2013-06-11 11:30:00,
2013-06-11 08:00:00,80.5,76.6,30.01,ESE,112,0.0,1.0,88,0.00,,SCT023,0.00,156.00,VWS V14.00,2013-06-11 12:00:00,
2013-06-11 08:30:00,80.5,76.6,30.01,ESE,112,0.0,2.0,88,0.00,,SCT023,0.00,24.00,VWS V14.00,2013-06-11 12:30:00,
2013-06-11 09:00:00,80.3,76.4,30.02,ESE,112,0.0,3.0,88,0.00,,SCT023,0.01,28.00,VWS V14.00,2013-06-11 13:00:00,
2013-06-11 09:30:00,79.6,75.7,30.02,East,90,2.0,6.0,88,0.00,,SCT023,0.01,40.00,VWS V14.00,2013-06-11 13:30:00,
2013-06-11 10:00:00,80.3,76.8,30.03,NW,315,0.0,4.0,89,0.00,,SCT023,0.01,71.00,VWS V14.00,2013-06-11 14:00:00,
2013-06-11 10:30:00,81.7,76.4,30.03,South,180,3.0,13.0,84,0.00,,SCT023,0.01,66.00,VWS V14.00,2013-06-11 14:30:00,
2013-06-11 11:00:00,78.5,75.0,30.04,SSW,202,5.0,15.0,89,0.62,,SCT023,0.07,32.00,VWS V14.00,2013-06-11 15:00:00,
2013-06-11 11:30:00,78.9,75.4,30.04,South,180,1.0,11.0,89,0.00,,SCT023,0.07,45.00,VWS V14.00,2013-06-11 15:30:00,
2013-06-11 12:00:00,79.3,75.4,30.03,South,180,1.0,5.0,88,0.00,,SCT023,0.07,59.00,VWS V14.00,2013-06-11 16:00:00,
2013-06-11 12:30:00,81.1,76.9,30.02,South,180,1.0,6.0,87,0.00,,SCT023,0.07,173.00,VWS V14.00,2013-06-11 16:30:00,
2013-06-11 13:00:00,83.7,77.2,30.02,SW,225,1.0,5.0,81,0.00,,SCT023,0.07,162.00,VWS V14.00,2013-06-11 17:00:00,
2013-06-11 13:30:00,86.1,77.2,30.01,SW,225,2.0,12.0,75,0.00,,SCT023,0.07,175.00,VWS V14.00,2013-06-11 17:30:00,
2013-06-11 14:00:00,87.1,77.0,30.00,WSW,248,2.0,11.0,72,0.00,,SCT023,0.07,192.00,VWS V14.00,2013-06-11 18:00:00,
2013-06-11 14:30:00,88.0,75.2,29.99,SSW,202,3.0,11.0,66,0.00,,SCT023,0.07,161.00,VWS V14.00,2013-06-11 18:30:00,
2013-06-11 15:00:00,87.8,74.1,29.98,South,180,5.0,13.0,64,0.00,,SCT023,0.07,176.00,VWS V14.00,2013-06-11 19:00:00,
2013-06-11 15:30:00,87.6,74.4,29.99,SSW,202,3.0,11.0,65,0.00,,SCT023,0.07,136.00,VWS V14.00,2013-06-11 19:30:00,
2013-06-11 16:00:00,86.4,75.5,29.98,South,180,4.0,13.0,70,0.00,,SCT023,0.07,139.00,VWS V14.00,2013-06-11 20:00:00,
2013-06-11 16:30:00,86.0,75.9,29.97,SSE,158,5.0,11.0,72,0.00,,SCT023,0.07,139.00,VWS V14.00,2013-06-11 20:30:00,
2013-06-11 17:00:00,84.8,75.2,29.97,SSE,158,6.0,12.0,73,0.00,,SCT023,0.07,85.00,VWS V14.00,2013-06-11 21:00:00,
2013-06-11 17:30:00,84.9,76.1,29.96,SSE,158,5.0,12.0,75,0.00,,SCT023,0.07,117.00,VWS V14.00,2013-06-11 21:30:00,
2013-06-11 18:00:00,85.2,76.8,29.97,SSE,158,4.0,11.0,76,0.00,,SCT023,0.07,133.00,VWS V14.00,2013-06-11 22:00:00,
2013-06-11 18:30:00,84.1,76.1,29.98,SSE,158,3.0,9.0,77,0.00,,SCT023,0.07,38.00,VWS V14.00,2013-06-11 22:30:00,
2013-06-11 19:00:00,83.5,75.9,29.99,SSE,158,2.0,7.0,78,0.00,,SCT023,0.07,16.00,VWS V14.00,2013-06-11 23:00:00,
2013-06-11 19:30:00,82.7,76.3,29.99,SSE,158,2.0,7.0,81,0.00,,SCT023,0.07,9.00,VWS V14.00,2013-06-11 23:30:00,
2013-06-11 20:00:00,82.1,76.4,30.00,SE,135,3.0,8.0,83,0.00,,SCT023,0.07,3.00,VWS V14.00,2013-06-12 00:00:00,
2013-06-11 20:30:00,81.7,76.4,29.98,SSE,158,4.0,9.0,84,0.00,,SCT023,0.07,0.00,VWS V14.00,2013-06-12 00:30:00,
2013-06-11 21:00:00,81.4,76.5,29.98,SSE,158,3.0,7.0,85,0.00,,SCT023,0.07,0.00,VWS V14.00,2013-06-12 01:00:00,
2013-06-11 21:30:00,81.5,76.6,29.99,SSE,158,4.0,11.0,85,0.00,,SCT023,0.07,0.00,VWS V14.00,2013-06-12 01:30:00,
2013-06-11 22:00:00,81.3,76.7,29.98,SSE,158,4.0,10.0,86,0.00,,SCT023,0.07,0.00,VWS V14.00,2013-06-12 02:00:00,
2013-06-11 22:30:00,81.1,76.5,29.98,SSE,158,4.0,14.0,86,0.00,,SCT023,0.07,0.00,VWS V14.00,2013-06-12 02:30:00,
2013-06-11 23:00:00,80.8,76.6,29.98,South,180,3.0,9.0,87,0.00,,SCT023,0.07,0.00,VWS V14.00,2013-06-12 03:00:00,
2013-06-11 23:30:00,80.9,76.0,29.99,South,180,3.0,9.0,85,0.00,,SCT023,0.07,0.00,VWS V14.00,2013-06-12 03:30:00,